Погода в Бергине

Россия / Республика Калмыкия     46°50′40″N   46°56′12″E
темп.,
°C
ветер,
м/с
пор.,
м/с
влажн.,
%
обл.,
%
осадки,
мм/ч
давл.,
гПа
погр.,
м
10 августа, ср
ср1000:00+28ссв22253 0.0 101411
03:00+26с22284 0.0 101411
06:00+26в34340 0.0 1014140
09:00+32в56260 0.0 1014965
12:00+36вюв57190 0.0 10133308
15:00+37юв88164 0.0 10113803
18:00+34юв99200 0.0 10122022
21:00+30юв47270 0.0 1013154
11 августа, чт
чт1100:00+27вюв46320 0.0 1012106
03:00+25в46370 0.0 101293
06:00+26всв613350 0.0 1013305
09:00+34вюв81024100 0.0 10121087
12:00+38юв10111525 0.0 10123887
15:00+37ююв1010173 0.0 10123421
18:00+35юв89180 0.0 10122432
21:00+30юв49250 0.0 1013171
12 августа, пт
пт1200:00+28вюв472823 0.0 1014122
03:00+26всв510335 0.0 1014176
06:00+27в612315 0.0 1015310
09:00+35вюв81020100 0.0 10151111
12:00+37юв6815100 0.0 10143524
15:00+38юв891371 0.0 10133863
18:00+35ююв791617 0.0 10141454
21:00+30ююв222517 0.0 101523
13 августа, сб
сб1300:00+28вюв332686 0.0 101526
03:00+27всв4629100 0.0 101599
06:00+27в410306 0.0 1015227
09:00+35в791969 0.0 10151313
12:00+39вюв791553 0.0 10134046
15:00+38вюв6815100 0.0 10123040
18:00+35юв691885 0.0 1012699
21:00+31вюв462448 0.0 1013107
14 августа, вс
вс1400:00+28всв512306 0.0 1013253
03:00+27в614245 0.0 1013315
06:00+26всв612215 0.0 1013326
09:00+33всв99160 0.0 1013907
12:00+36всв77150 0.0 10112005
15:00+39юв99142 0.0 10103921
18:00+36юв77160 0.0 10101476
21:00+30вюв47230 0.0 1011117